Index of /20260424/WXO-DD/model_gdps/15km/12/141
Name Last modified Size Description
Parent Directory -
20260424T12Z_MSC_GDPS_AbsoluteVorticity_IsbL-0200_LatLon0.15_PT141H.grib2 2026-04-24 16:27 1.5M
20260424T12Z_MSC_GDPS_AbsoluteVorticity_IsbL-0250_LatLon0.15_PT141H.grib2 2026-04-24 16:27 1.3M
20260424T12Z_MSC_GDPS_AbsoluteVorticity_IsbL-0500_LatLon0.15_PT141H.grib2 2026-04-24 16:27 1.4M
20260424T12Z_MSC_GDPS_AbsoluteVorticity_IsbL-0700_LatLon0.15_PT141H.grib2 2026-04-24 16:27 1.3M
20260424T12Z_MSC_GDPS_AbsoluteVorticity_IsbL-0850_LatLon0.15_PT141H.grib2 2026-04-24 16:27 1.6M
20260424T12Z_MSC_GDPS_AirTemp_AGL-120m_LatLon0.15_PT141H.grib2 2026-04-24 16:27 909K
20260424T12Z_MSC_GDPS_AirTemp_AGL-2m_LatLon0.15_PT141H.grib2 2026-04-24 16:27 1.0M
20260424T12Z_MSC_GDPS_AirTemp_AGL-40m_LatLon0.15_PT141H.grib2 2026-04-24 16:27 811K
20260424T12Z_MSC_GDPS_AirTemp_AGL-80m_LatLon0.15_PT141H.grib2 2026-04-24 16:27 800K
20260424T12Z_MSC_GDPS_AirTemp_IsbL-0001_LatLon0.15_PT141H.grib2 2026-04-24 16:27 712K
20260424T12Z_MSC_GDPS_AirTemp_IsbL-0005_LatLon0.15_PT141H.grib2 2026-04-24 16:27 684K
20260424T12Z_MSC_GDPS_AirTemp_IsbL-0010_LatLon0.15_PT141H.grib2 2026-04-24 16:27 756K
20260424T12Z_MSC_GDPS_AirTemp_IsbL-0020_LatLon0.15_PT141H.grib2 2026-04-24 16:27 778K
20260424T12Z_MSC_GDPS_AirTemp_IsbL-0030_LatLon0.15_PT141H.grib2 2026-04-24 16:27 742K
20260424T12Z_MSC_GDPS_AirTemp_IsbL-0050_LatLon0.15_PT141H.grib2 2026-04-24 16:27 795K
20260424T12Z_MSC_GDPS_AirTemp_IsbL-0100_LatLon0.15_PT141H.grib2 2026-04-24 16:27 950K
20260424T12Z_MSC_GDPS_AirTemp_IsbL-0150_LatLon0.15_PT141H.grib2 2026-04-24 16:27 972K
20260424T12Z_MSC_GDPS_AirTemp_IsbL-0175_LatLon0.15_PT141H.grib2 2026-04-24 16:27 955K
20260424T12Z_MSC_GDPS_AirTemp_IsbL-0200_LatLon0.15_PT141H.grib2 2026-04-24 16:27 969K
20260424T12Z_MSC_GDPS_AirTemp_IsbL-0225_LatLon0.15_PT141H.grib2 2026-04-24 16:27 971K
20260424T12Z_MSC_GDPS_AirTemp_IsbL-0250_LatLon0.15_PT141H.grib2 2026-04-24 16:27 1.0M
20260424T12Z_MSC_GDPS_AirTemp_IsbL-0275_LatLon0.15_PT141H.grib2 2026-04-24 16:27 1.0M
20260424T12Z_MSC_GDPS_AirTemp_IsbL-0300_LatLon0.15_PT141H.grib2 2026-04-24 16:27 1.0M
20260424T12Z_MSC_GDPS_AirTemp_IsbL-0350_LatLon0.15_PT141H.grib2 2026-04-24 16:27 921K
20260424T12Z_MSC_GDPS_AirTemp_IsbL-0400_LatLon0.15_PT141H.grib2 2026-04-24 16:27 934K
20260424T12Z_MSC_GDPS_AirTemp_IsbL-0450_LatLon0.15_PT141H.grib2 2026-04-24 16:27 957K
20260424T12Z_MSC_GDPS_AirTemp_IsbL-0500_LatLon0.15_PT141H.grib2 2026-04-24 16:27 1.0M
20260424T12Z_MSC_GDPS_AirTemp_IsbL-0550_LatLon0.15_PT141H.grib2 2026-04-24 16:27 794K
20260424T12Z_MSC_GDPS_AirTemp_IsbL-0600_LatLon0.15_PT141H.grib2 2026-04-24 16:27 891K
20260424T12Z_MSC_GDPS_AirTemp_IsbL-0650_LatLon0.15_PT141H.grib2 2026-04-24 16:27 919K
20260424T12Z_MSC_GDPS_AirTemp_IsbL-0700_LatLon0.15_PT141H.grib2 2026-04-24 16:27 953K
20260424T12Z_MSC_GDPS_AirTemp_IsbL-0750_LatLon0.15_PT141H.grib2 2026-04-24 16:27 1.0M
20260424T12Z_MSC_GDPS_AirTemp_IsbL-0800_LatLon0.15_PT141H.grib2 2026-04-24 16:27 1.1M
20260424T12Z_MSC_GDPS_AirTemp_IsbL-0850_LatLon0.15_PT141H.grib2 2026-04-24 16:27 1.1M
20260424T12Z_MSC_GDPS_AirTemp_IsbL-0875_LatLon0.15_PT141H.grib2 2026-04-24 16:27 1.2M
20260424T12Z_MSC_GDPS_AirTemp_IsbL-0900_LatLon0.15_PT141H.grib2 2026-04-24 16:27 1.1M
20260424T12Z_MSC_GDPS_AirTemp_IsbL-0925_LatLon0.15_PT141H.grib2 2026-04-24 16:27 1.1M
20260424T12Z_MSC_GDPS_AirTemp_IsbL-0950_LatLon0.15_PT141H.grib2 2026-04-24 16:27 1.1M
20260424T12Z_MSC_GDPS_AirTemp_IsbL-0970_LatLon0.15_PT141H.grib2 2026-04-24 16:27 1.2M
20260424T12Z_MSC_GDPS_AirTemp_IsbL-0985_LatLon0.15_PT141H.grib2 2026-04-24 16:27 1.2M
20260424T12Z_MSC_GDPS_AirTemp_IsbL-1000_LatLon0.15_PT141H.grib2 2026-04-24 16:27 1.1M
20260424T12Z_MSC_GDPS_AirTemp_IsbL-1015_LatLon0.15_PT141H.grib2 2026-04-24 16:27 1.1M
20260424T12Z_MSC_GDPS_Albedo_Sfc_LatLon0.15_PT141H.grib2 2026-04-24 16:27 243K
20260424T12Z_MSC_GDPS_CAPE_Sfc_LatLon0.15_PT141H.grib2 2026-04-24 16:27 3.9M
20260424T12Z_MSC_GDPS_CIN_Sfc_LatLon0.15_PT141H.grib2 2026-04-24 16:27 3.0M
20260424T12Z_MSC_GDPS_CloudWater_EAtm_LatLon0.15_PT141H.grib2 2026-04-24 16:27 534K
20260424T12Z_MSC_GDPS_ConvectivePrecip-Accum_Sfc_LatLon0.15_PT141H.grib2 2026-04-24 16:27 3.7M
20260424T12Z_MSC_GDPS_DewPointDepression_AGL-2m_LatLon0.15_PT141H.grib2 2026-04-24 16:27 757K
20260424T12Z_MSC_GDPS_DewPointDepression_IsbL-0010_LatLon0.15_PT141H.grib2 2026-04-24 16:27 64K
20260424T12Z_MSC_GDPS_DewPointDepression_IsbL-0020_LatLon0.15_PT141H.grib2 2026-04-24 16:27 57K
20260424T12Z_MSC_GDPS_DewPointDepression_IsbL-0030_LatLon0.15_PT141H.grib2 2026-04-24 16:27 67K
20260424T12Z_MSC_GDPS_DewPointDepression_IsbL-0050_LatLon0.15_PT141H.grib2 2026-04-24 16:27 359K
20260424T12Z_MSC_GDPS_DewPointDepression_IsbL-0100_LatLon0.15_PT141H.grib2 2026-04-24 16:27 394K
20260424T12Z_MSC_GDPS_DewPointDepression_IsbL-0150_LatLon0.15_PT141H.grib2 2026-04-24 16:27 451K
20260424T12Z_MSC_GDPS_DewPointDepression_IsbL-0175_LatLon0.15_PT141H.grib2 2026-04-24 16:27 556K
20260424T12Z_MSC_GDPS_DewPointDepression_IsbL-0200_LatLon0.15_PT141H.grib2 2026-04-24 16:27 672K
20260424T12Z_MSC_GDPS_DewPointDepression_IsbL-0225_LatLon0.15_PT141H.grib2 2026-04-24 16:27 787K
20260424T12Z_MSC_GDPS_DewPointDepression_IsbL-0250_LatLon0.15_PT141H.grib2 2026-04-24 16:27 867K
20260424T12Z_MSC_GDPS_DewPointDepression_IsbL-0275_LatLon0.15_PT141H.grib2 2026-04-24 16:27 867K
20260424T12Z_MSC_GDPS_DewPointDepression_IsbL-0300_LatLon0.15_PT141H.grib2 2026-04-24 16:27 894K
20260424T12Z_MSC_GDPS_DewPointDepression_IsbL-0350_LatLon0.15_PT141H.grib2 2026-04-24 16:27 918K
20260424T12Z_MSC_GDPS_DewPointDepression_IsbL-0400_LatLon0.15_PT141H.grib2 2026-04-24 16:27 953K
20260424T12Z_MSC_GDPS_DewPointDepression_IsbL-0450_LatLon0.15_PT141H.grib2 2026-04-24 16:27 1.0M
20260424T12Z_MSC_GDPS_DewPointDepression_IsbL-0500_LatLon0.15_PT141H.grib2 2026-04-24 16:27 1.0M
20260424T12Z_MSC_GDPS_DewPointDepression_IsbL-0550_LatLon0.15_PT141H.grib2 2026-04-24 16:27 1.0M
20260424T12Z_MSC_GDPS_DewPointDepression_IsbL-0600_LatLon0.15_PT141H.grib2 2026-04-24 16:27 1.0M
20260424T12Z_MSC_GDPS_DewPointDepression_IsbL-0650_LatLon0.15_PT141H.grib2 2026-04-24 16:27 1.1M
20260424T12Z_MSC_GDPS_DewPointDepression_IsbL-0700_LatLon0.15_PT141H.grib2 2026-04-24 16:27 1.1M
20260424T12Z_MSC_GDPS_DewPointDepression_IsbL-0750_LatLon0.15_PT141H.grib2 2026-04-24 16:27 1.1M
20260424T12Z_MSC_GDPS_DewPointDepression_IsbL-0800_LatLon0.15_PT141H.grib2 2026-04-24 16:27 1.2M
20260424T12Z_MSC_GDPS_DewPointDepression_IsbL-0850_LatLon0.15_PT141H.grib2 2026-04-24 16:27 1.2M
20260424T12Z_MSC_GDPS_DewPointDepression_IsbL-0875_LatLon0.15_PT141H.grib2 2026-04-24 16:27 1.1M
20260424T12Z_MSC_GDPS_DewPointDepression_IsbL-0900_LatLon0.15_PT141H.grib2 2026-04-24 16:27 1.1M
20260424T12Z_MSC_GDPS_DewPointDepression_IsbL-0925_LatLon0.15_PT141H.grib2 2026-04-24 16:27 1.0M
20260424T12Z_MSC_GDPS_DewPointDepression_IsbL-0950_LatLon0.15_PT141H.grib2 2026-04-24 16:27 1.0M
20260424T12Z_MSC_GDPS_DewPointDepression_IsbL-0970_LatLon0.15_PT141H.grib2 2026-04-24 16:27 1.0M
20260424T12Z_MSC_GDPS_DewPointDepression_IsbL-0985_LatLon0.15_PT141H.grib2 2026-04-24 16:27 1.0M
20260424T12Z_MSC_GDPS_DewPointDepression_IsbL-1000_LatLon0.15_PT141H.grib2 2026-04-24 16:27 1.0M
20260424T12Z_MSC_GDPS_DewPointDepression_IsbL-1015_LatLon0.15_PT141H.grib2 2026-04-24 16:27 913K
20260424T12Z_MSC_GDPS_DewPoint_AGL-2m_LatLon0.15_PT141H.grib2 2026-04-24 16:27 610K
20260424T12Z_MSC_GDPS_DownwardLongwaveRadiationFlux-Accum_Sfc_LatLon0.15_PT141H.grib2 2026-04-24 16:27 833K
20260424T12Z_MSC_GDPS_DownwardShortwaveRadiationFlux-Accum_NTAtm_LatLon0.15_PT141H.grib2 2026-04-24 16:27 174K
20260424T12Z_MSC_GDPS_DownwardShortwaveRadiationFlux-Accum_Sfc_LatLon0.15_PT141H.grib2 2026-04-24 16:27 1.0M
20260424T12Z_MSC_GDPS_FreezingRain-Accum1h_Sfc_LatLon0.15_PT141H.grib2 2026-04-24 16:27 42K
20260424T12Z_MSC_GDPS_FreezingRain-Accum3h_Sfc_LatLon0.15_PT141H.grib2 2026-04-24 16:27 49K
20260424T12Z_MSC_GDPS_FreezingRain-Accum_Sfc_LatLon0.15_PT141H.grib2 2026-04-24 16:27 486K
20260424T12Z_MSC_GDPS_GeopotentialHeight_IsbL-0001_LatLon0.15_PT141H.grib2 2026-04-24 16:27 381K
20260424T12Z_MSC_GDPS_GeopotentialHeight_IsbL-0005_LatLon0.15_PT141H.grib2 2026-04-24 16:27 483K
20260424T12Z_MSC_GDPS_GeopotentialHeight_IsbL-0010_LatLon0.15_PT141H.grib2 2026-04-24 16:27 472K
20260424T12Z_MSC_GDPS_GeopotentialHeight_IsbL-0020_LatLon0.15_PT141H.grib2 2026-04-24 16:27 412K
20260424T12Z_MSC_GDPS_GeopotentialHeight_IsbL-0030_LatLon0.15_PT141H.grib2 2026-04-24 16:27 413K
20260424T12Z_MSC_GDPS_GeopotentialHeight_IsbL-0050_LatLon0.15_PT141H.grib2 2026-04-24 16:27 567K
20260424T12Z_MSC_GDPS_GeopotentialHeight_IsbL-0100_LatLon0.15_PT141H.grib2 2026-04-24 16:27 606K
20260424T12Z_MSC_GDPS_GeopotentialHeight_IsbL-0150_LatLon0.15_PT141H.grib2 2026-04-24 16:27 628K
20260424T12Z_MSC_GDPS_GeopotentialHeight_IsbL-0175_LatLon0.15_PT141H.grib2 2026-04-24 16:27 475K
20260424T12Z_MSC_GDPS_GeopotentialHeight_IsbL-0200_LatLon0.15_PT141H.grib2 2026-04-24 16:27 479K
20260424T12Z_MSC_GDPS_GeopotentialHeight_IsbL-0225_LatLon0.15_PT141H.grib2 2026-04-24 16:27 642K
20260424T12Z_MSC_GDPS_GeopotentialHeight_IsbL-0250_LatLon0.15_PT141H.grib2 2026-04-24 16:27 644K
20260424T12Z_MSC_GDPS_GeopotentialHeight_IsbL-0275_LatLon0.15_PT141H.grib2 2026-04-24 16:27 644K
20260424T12Z_MSC_GDPS_GeopotentialHeight_IsbL-0300_LatLon0.15_PT141H.grib2 2026-04-24 16:27 642K
20260424T12Z_MSC_GDPS_GeopotentialHeight_IsbL-0350_LatLon0.15_PT141H.grib2 2026-04-24 16:27 630K
20260424T12Z_MSC_GDPS_GeopotentialHeight_IsbL-0400_LatLon0.15_PT141H.grib2 2026-04-24 16:27 623K
20260424T12Z_MSC_GDPS_GeopotentialHeight_IsbL-0450_LatLon0.15_PT141H.grib2 2026-04-24 16:27 613K
20260424T12Z_MSC_GDPS_GeopotentialHeight_IsbL-0500_LatLon0.15_PT141H.grib2 2026-04-24 16:27 598K
20260424T12Z_MSC_GDPS_GeopotentialHeight_IsbL-0550_LatLon0.15_PT141H.grib2 2026-04-24 16:27 524K
20260424T12Z_MSC_GDPS_GeopotentialHeight_IsbL-0600_LatLon0.15_PT141H.grib2 2026-04-24 16:27 522K
20260424T12Z_MSC_GDPS_GeopotentialHeight_IsbL-0650_LatLon0.15_PT141H.grib2 2026-04-24 16:27 686K
20260424T12Z_MSC_GDPS_GeopotentialHeight_IsbL-0700_LatLon0.15_PT141H.grib2 2026-04-24 16:27 682K
20260424T12Z_MSC_GDPS_GeopotentialHeight_IsbL-0750_LatLon0.15_PT141H.grib2 2026-04-24 16:27 689K
20260424T12Z_MSC_GDPS_GeopotentialHeight_IsbL-0800_LatLon0.15_PT141H.grib2 2026-04-24 16:27 705K
20260424T12Z_MSC_GDPS_GeopotentialHeight_IsbL-0850_LatLon0.15_PT141H.grib2 2026-04-24 16:27 717K
20260424T12Z_MSC_GDPS_GeopotentialHeight_IsbL-0875_LatLon0.15_PT141H.grib2 2026-04-24 16:27 717K
20260424T12Z_MSC_GDPS_GeopotentialHeight_IsbL-0900_LatLon0.15_PT141H.grib2 2026-04-24 16:27 724K
20260424T12Z_MSC_GDPS_GeopotentialHeight_IsbL-0925_LatLon0.15_PT141H.grib2 2026-04-24 16:27 733K
20260424T12Z_MSC_GDPS_GeopotentialHeight_IsbL-0950_LatLon0.15_PT141H.grib2 2026-04-24 16:27 738K
20260424T12Z_MSC_GDPS_GeopotentialHeight_IsbL-0970_LatLon0.15_PT141H.grib2 2026-04-24 16:27 751K
20260424T12Z_MSC_GDPS_GeopotentialHeight_IsbL-0985_LatLon0.15_PT141H.grib2 2026-04-24 16:27 767K
20260424T12Z_MSC_GDPS_GeopotentialHeight_IsbL-1000_LatLon0.15_PT141H.grib2 2026-04-24 16:27 790K
20260424T12Z_MSC_GDPS_GeopotentialHeight_IsbL-1015_LatLon0.15_PT141H.grib2 2026-04-24 16:27 813K
20260424T12Z_MSC_GDPS_Humidex_Sfc_LatLon0.15_PT141H.grib2 2026-04-24 16:27 5.3M
20260424T12Z_MSC_GDPS_IcePellets-Accum1h_Sfc_LatLon0.15_PT141H.grib2 2026-04-24 16:27 4.3K
20260424T12Z_MSC_GDPS_IcePellets-Accum3h_Sfc_LatLon0.15_PT141H.grib2 2026-04-24 16:27 5.6K
20260424T12Z_MSC_GDPS_IcePellets-Accum_Sfc_LatLon0.15_PT141H.grib2 2026-04-24 16:27 165K
20260424T12Z_MSC_GDPS_KIndex_Sfc_LatLon0.15_PT141H.grib2 2026-04-24 16:27 6.5M
20260424T12Z_MSC_GDPS_LatentHeatNetFlux_Sfc_LatLon0.15_PT141H.grib2 2026-04-24 16:27 550K
20260424T12Z_MSC_GDPS_LiftedIndex-MU-VT_IsbL-0500_LatLon0.15_PT141H.grib2 2026-04-24 16:27 5.4M
20260424T12Z_MSC_GDPS_NetLongwaveRadiationFlux-Accum_Sfc_LatLon0.15_PT141H.grib2 2026-04-24 16:27 1.1M
20260424T12Z_MSC_GDPS_NetShortwaveRadiationFlux-Accum_Sfc_LatLon0.15_PT141H.grib2 2026-04-24 16:27 1.0M
20260424T12Z_MSC_GDPS_O3MixingRatio_LatLon0.15_PT141H.grib2 2026-04-24 16:51 2.2M
20260424T12Z_MSC_GDPS_O3_EAtm_LatLon0.15_PT141H.grib2 2026-04-24 16:51 2.4M
20260424T12Z_MSC_GDPS_PlanetaryBoundaryLayerHeight_Sfc_LatLon0.15_PT141H.grib2 2026-04-24 16:27 2.5M
20260424T12Z_MSC_GDPS_Precip-Accum1h_Sfc_LatLon0.15_PT141H.grib2 2026-04-24 16:27 3.3M
20260424T12Z_MSC_GDPS_Precip-Accum3h_Sfc_LatLon0.15_PT141H.grib2 2026-04-24 16:27 3.5M
20260424T12Z_MSC_GDPS_Precip-Accum_Sfc_LatLon0.15_PT141H.grib2 2026-04-24 16:27 5.2M
20260424T12Z_MSC_GDPS_PrecipRate_Sfc_LatLon0.15_PT141H.grib2 2026-04-24 16:27 2.8M
20260424T12Z_MSC_GDPS_PrecipType-Instant_Sfc_LatLon0.15_PT141H.grib2 2026-04-24 16:27 1.6M
20260424T12Z_MSC_GDPS_Pressure_MSL_LatLon0.15_PT141H.grib2 2026-04-24 16:27 722K
20260424T12Z_MSC_GDPS_Pressure_Sfc_LatLon0.15_PT141H.grib2 2026-04-24 16:27 1.1M
20260424T12Z_MSC_GDPS_RadiativeTemp_Sfc_LatLon0.15_PT141H.grib2 2026-04-24 16:27 504K
20260424T12Z_MSC_GDPS_Rain-Accum1h_Sfc_LatLon0.15_PT141H.grib2 2026-04-24 16:27 1.5M
20260424T12Z_MSC_GDPS_Rain-Accum3h_Sfc_LatLon0.15_PT141H.grib2 2026-04-24 16:27 1.7M
20260424T12Z_MSC_GDPS_Rain-Accum_Sfc_LatLon0.15_PT141H.grib2 2026-04-24 16:27 4.1M
20260424T12Z_MSC_GDPS_RelativeHumidity_AGL-2m_LatLon0.15_PT141H.grib2 2026-04-24 16:27 1.1M
20260424T12Z_MSC_GDPS_RelativeHumidity_IsbL-0010_LatLon0.15_PT141H.grib2 2026-04-24 16:27 163K
20260424T12Z_MSC_GDPS_RelativeHumidity_IsbL-0020_LatLon0.15_PT141H.grib2 2026-04-24 16:27 216K
20260424T12Z_MSC_GDPS_RelativeHumidity_IsbL-0030_LatLon0.15_PT141H.grib2 2026-04-24 16:27 255K
20260424T12Z_MSC_GDPS_RelativeHumidity_IsbL-0050_LatLon0.15_PT141H.grib2 2026-04-24 16:27 410K
20260424T12Z_MSC_GDPS_RelativeHumidity_IsbL-0100_LatLon0.15_PT141H.grib2 2026-04-24 16:27 485K
20260424T12Z_MSC_GDPS_RelativeHumidity_IsbL-0150_LatLon0.15_PT141H.grib2 2026-04-24 16:27 648K
20260424T12Z_MSC_GDPS_RelativeHumidity_IsbL-0175_LatLon0.15_PT141H.grib2 2026-04-24 16:27 779K
20260424T12Z_MSC_GDPS_RelativeHumidity_IsbL-0200_LatLon0.15_PT141H.grib2 2026-04-24 16:27 701K
20260424T12Z_MSC_GDPS_RelativeHumidity_IsbL-0225_LatLon0.15_PT141H.grib2 2026-04-24 16:27 787K
20260424T12Z_MSC_GDPS_RelativeHumidity_IsbL-0250_LatLon0.15_PT141H.grib2 2026-04-24 16:27 866K
20260424T12Z_MSC_GDPS_RelativeHumidity_IsbL-0275_LatLon0.15_PT141H.grib2 2026-04-24 16:27 882K
20260424T12Z_MSC_GDPS_RelativeHumidity_IsbL-0300_LatLon0.15_PT141H.grib2 2026-04-24 16:27 915K
20260424T12Z_MSC_GDPS_RelativeHumidity_IsbL-0350_LatLon0.15_PT141H.grib2 2026-04-24 16:27 933K
20260424T12Z_MSC_GDPS_RelativeHumidity_IsbL-0400_LatLon0.15_PT141H.grib2 2026-04-24 16:27 957K
20260424T12Z_MSC_GDPS_RelativeHumidity_IsbL-0450_LatLon0.15_PT141H.grib2 2026-04-24 16:27 1.0M
20260424T12Z_MSC_GDPS_RelativeHumidity_IsbL-0500_LatLon0.15_PT141H.grib2 2026-04-24 16:27 1.0M
20260424T12Z_MSC_GDPS_RelativeHumidity_IsbL-0550_LatLon0.15_PT141H.grib2 2026-04-24 16:27 1.0M
20260424T12Z_MSC_GDPS_RelativeHumidity_IsbL-0600_LatLon0.15_PT141H.grib2 2026-04-24 16:27 1.0M
20260424T12Z_MSC_GDPS_RelativeHumidity_IsbL-0650_LatLon0.15_PT141H.grib2 2026-04-24 16:27 1.1M
20260424T12Z_MSC_GDPS_RelativeHumidity_IsbL-0700_LatLon0.15_PT141H.grib2 2026-04-24 16:27 1.1M
20260424T12Z_MSC_GDPS_RelativeHumidity_IsbL-0750_LatLon0.15_PT141H.grib2 2026-04-24 16:27 1.2M
20260424T12Z_MSC_GDPS_RelativeHumidity_IsbL-0800_LatLon0.15_PT141H.grib2 2026-04-24 16:27 1.3M
20260424T12Z_MSC_GDPS_RelativeHumidity_IsbL-0850_LatLon0.15_PT141H.grib2 2026-04-24 16:27 1.3M
20260424T12Z_MSC_GDPS_RelativeHumidity_IsbL-0875_LatLon0.15_PT141H.grib2 2026-04-24 16:27 1.3M
20260424T12Z_MSC_GDPS_RelativeHumidity_IsbL-0900_LatLon0.15_PT141H.grib2 2026-04-24 16:27 1.2M
20260424T12Z_MSC_GDPS_RelativeHumidity_IsbL-0925_LatLon0.15_PT141H.grib2 2026-04-24 16:27 1.2M
20260424T12Z_MSC_GDPS_RelativeHumidity_IsbL-0950_LatLon0.15_PT141H.grib2 2026-04-24 16:27 1.2M
20260424T12Z_MSC_GDPS_RelativeHumidity_IsbL-0970_LatLon0.15_PT141H.grib2 2026-04-24 16:27 1.2M
20260424T12Z_MSC_GDPS_RelativeHumidity_IsbL-0985_LatLon0.15_PT141H.grib2 2026-04-24 16:27 1.2M
20260424T12Z_MSC_GDPS_RelativeHumidity_IsbL-1000_LatLon0.15_PT141H.grib2 2026-04-24 16:27 1.1M
20260424T12Z_MSC_GDPS_RelativeHumidity_IsbL-1015_LatLon0.15_PT141H.grib2 2026-04-24 16:27 1.0M
20260424T12Z_MSC_GDPS_RelativeVorticity_IsbL-0200_LatLon0.15_PT141H.grib2 2026-04-24 16:27 1.5M
20260424T12Z_MSC_GDPS_RelativeVorticity_IsbL-0250_LatLon0.15_PT141H.grib2 2026-04-24 16:27 1.3M
20260424T12Z_MSC_GDPS_RelativeVorticity_IsbL-0500_LatLon0.15_PT141H.grib2 2026-04-24 16:27 1.4M
20260424T12Z_MSC_GDPS_RelativeVorticity_IsbL-0700_LatLon0.15_PT141H.grib2 2026-04-24 16:27 1.6M
20260424T12Z_MSC_GDPS_RelativeVorticity_IsbL-0850_LatLon0.15_PT141H.grib2 2026-04-24 16:27 1.9M
20260424T12Z_MSC_GDPS_Runoff-Accum_Sfc_LatLon0.15_PT141H.grib2 2026-04-24 16:27 150K
20260424T12Z_MSC_GDPS_SensibleHeatNetFlux_Sfc_LatLon0.15_PT141H.grib2 2026-04-24 16:27 662K
20260424T12Z_MSC_GDPS_ShowalterIndex_IsbL-0500_LatLon0.15_PT141H.grib2 2026-04-24 16:27 6.2M
20260424T12Z_MSC_GDPS_Snow-Accum1h_Sfc_LatLon0.15_PT141H.grib2 2026-04-24 16:27 1.1M
20260424T12Z_MSC_GDPS_Snow-Accum3h_Sfc_LatLon0.15_PT141H.grib2 2026-04-24 16:27 1.0M
20260424T12Z_MSC_GDPS_Snow-Accum_Sfc_LatLon0.15_PT141H.grib2 2026-04-24 16:27 2.2M
20260424T12Z_MSC_GDPS_SnowDensity_Sfc_LatLon0.15_PT141H.grib2 2026-04-24 16:27 274K
20260424T12Z_MSC_GDPS_SnowDepth_Sfc_LatLon0.15_PT141H.grib2 2026-04-24 16:27 1.8M
20260424T12Z_MSC_GDPS_SoilTemp_DBS-0to10cm_LatLon0.15_PT141H.grib2 2026-04-24 16:27 508K
20260424T12Z_MSC_GDPS_SoilTemp_Sfc_LatLon0.15_PT141H.grib2 2026-04-24 16:27 582K
20260424T12Z_MSC_GDPS_SoilVolumetricIceContent_Sfc_LatLon0.15_PT141H.grib2 2026-04-24 16:27 209K
20260424T12Z_MSC_GDPS_SoilVolumetricWaterContent_DBS-0to10cm_LatLon0.15_PT141H.grib2 2026-04-24 16:27 582K
20260424T12Z_MSC_GDPS_SoilVolumetricWaterContent_DBS-0to1cm_LatLon0.15_PT141H.grib2 2026-04-24 16:27 650K
20260424T12Z_MSC_GDPS_SpecificHumidity_AGL-120m_LatLon0.15_PT141H.grib2 2026-04-24 16:27 1.1M
20260424T12Z_MSC_GDPS_SpecificHumidity_AGL-2m_LatLon0.15_PT141H.grib2 2026-04-24 16:27 1.2M
20260424T12Z_MSC_GDPS_SpecificHumidity_AGL-40m_LatLon0.15_PT141H.grib2 2026-04-24 16:27 1.1M
20260424T12Z_MSC_GDPS_SpecificHumidity_AGL-80m_LatLon0.15_PT141H.grib2 2026-04-24 16:27 1.1M
20260424T12Z_MSC_GDPS_SpecificHumidity_IsbL-0001_LatLon0.15_PT141H.grib2 2026-04-24 16:27 1.2M
20260424T12Z_MSC_GDPS_SpecificHumidity_IsbL-0005_LatLon0.15_PT141H.grib2 2026-04-24 16:27 1.4M
20260424T12Z_MSC_GDPS_SpecificHumidity_IsbL-0010_LatLon0.15_PT141H.grib2 2026-04-24 16:27 1.2M
20260424T12Z_MSC_GDPS_SpecificHumidity_IsbL-0020_LatLon0.15_PT141H.grib2 2026-04-24 16:27 1.3M
20260424T12Z_MSC_GDPS_SpecificHumidity_IsbL-0030_LatLon0.15_PT141H.grib2 2026-04-24 16:27 1.5M
20260424T12Z_MSC_GDPS_SpecificHumidity_IsbL-0050_LatLon0.15_PT141H.grib2 2026-04-24 16:27 1.3M
20260424T12Z_MSC_GDPS_SpecificHumidity_IsbL-0100_LatLon0.15_PT141H.grib2 2026-04-24 16:27 1.3M
20260424T12Z_MSC_GDPS_SpecificHumidity_IsbL-0150_LatLon0.15_PT141H.grib2 2026-04-24 16:27 1.2M
20260424T12Z_MSC_GDPS_SpecificHumidity_IsbL-0175_LatLon0.15_PT141H.grib2 2026-04-24 16:27 1.2M
20260424T12Z_MSC_GDPS_SpecificHumidity_IsbL-0200_LatLon0.15_PT141H.grib2 2026-04-24 16:27 1.3M
20260424T12Z_MSC_GDPS_SpecificHumidity_IsbL-0225_LatLon0.15_PT141H.grib2 2026-04-24 16:27 1.3M
20260424T12Z_MSC_GDPS_SpecificHumidity_IsbL-0250_LatLon0.15_PT141H.grib2 2026-04-24 16:27 1.4M
20260424T12Z_MSC_GDPS_SpecificHumidity_IsbL-0275_LatLon0.15_PT141H.grib2 2026-04-24 16:27 1.3M
20260424T12Z_MSC_GDPS_SpecificHumidity_IsbL-0300_LatLon0.15_PT141H.grib2 2026-04-24 16:27 1.2M
20260424T12Z_MSC_GDPS_SpecificHumidity_IsbL-0350_LatLon0.15_PT141H.grib2 2026-04-24 16:27 1.2M
20260424T12Z_MSC_GDPS_SpecificHumidity_IsbL-0400_LatLon0.15_PT141H.grib2 2026-04-24 16:27 1.4M
20260424T12Z_MSC_GDPS_SpecificHumidity_IsbL-0450_LatLon0.15_PT141H.grib2 2026-04-24 16:27 1.5M
20260424T12Z_MSC_GDPS_SpecificHumidity_IsbL-0500_LatLon0.15_PT141H.grib2 2026-04-24 16:27 1.4M
20260424T12Z_MSC_GDPS_SpecificHumidity_IsbL-0550_LatLon0.15_PT141H.grib2 2026-04-24 16:27 1.6M
20260424T12Z_MSC_GDPS_SpecificHumidity_IsbL-0600_LatLon0.15_PT141H.grib2 2026-04-24 16:27 1.7M
20260424T12Z_MSC_GDPS_SpecificHumidity_IsbL-0650_LatLon0.15_PT141H.grib2 2026-04-24 16:27 1.5M
20260424T12Z_MSC_GDPS_SpecificHumidity_IsbL-0700_LatLon0.15_PT141H.grib2 2026-04-24 16:27 1.6M
20260424T12Z_MSC_GDPS_SpecificHumidity_IsbL-0750_LatLon0.15_PT141H.grib2 2026-04-24 16:27 1.7M
20260424T12Z_MSC_GDPS_SpecificHumidity_IsbL-0800_LatLon0.15_PT141H.grib2 2026-04-24 16:27 1.9M
20260424T12Z_MSC_GDPS_SpecificHumidity_IsbL-0850_LatLon0.15_PT141H.grib2 2026-04-24 16:27 1.9M
20260424T12Z_MSC_GDPS_SpecificHumidity_IsbL-0875_LatLon0.15_PT141H.grib2 2026-04-24 16:27 1.9M
20260424T12Z_MSC_GDPS_SpecificHumidity_IsbL-0900_LatLon0.15_PT141H.grib2 2026-04-24 16:27 1.6M
20260424T12Z_MSC_GDPS_SpecificHumidity_IsbL-0925_LatLon0.15_PT141H.grib2 2026-04-24 16:27 1.6M
20260424T12Z_MSC_GDPS_SpecificHumidity_IsbL-0950_LatLon0.15_PT141H.grib2 2026-04-24 16:27 1.6M
20260424T12Z_MSC_GDPS_SpecificHumidity_IsbL-0970_LatLon0.15_PT141H.grib2 2026-04-24 16:27 1.5M
20260424T12Z_MSC_GDPS_SpecificHumidity_IsbL-0985_LatLon0.15_PT141H.grib2 2026-04-24 16:27 1.5M
20260424T12Z_MSC_GDPS_SpecificHumidity_IsbL-1000_LatLon0.15_PT141H.grib2 2026-04-24 16:27 1.5M
20260424T12Z_MSC_GDPS_SpecificHumidity_IsbL-1015_LatLon0.15_PT141H.grib2 2026-04-24 16:27 1.4M
20260424T12Z_MSC_GDPS_SpecificHumidity_Sfc_LatLon0.15_PT141H.grib2 2026-04-24 16:27 674K
20260424T12Z_MSC_GDPS_Thickness_IsbL-0850to0700_LatLon0.15_PT141H.grib2 2026-04-24 16:27 466K
20260424T12Z_MSC_GDPS_Thickness_IsbL-1000to0500_LatLon0.15_PT141H.grib2 2026-04-24 16:27 372K
20260424T12Z_MSC_GDPS_Thickness_IsbL-1000to0850_LatLon0.15_PT141H.grib2 2026-04-24 16:27 490K
20260424T12Z_MSC_GDPS_TotalCloudCover_Sfc_LatLon0.15_PT141H.grib2 2026-04-24 16:27 836K
20260424T12Z_MSC_GDPS_TotalTotalsIndex_Sfc_LatLon0.15_PT141H.grib2 2026-04-24 16:27 6.2M
20260424T12Z_MSC_GDPS_UVIndex-ClearSky_Sfc_LatLon0.15_PT141H.grib2 2026-04-24 16:51 1.1M
20260424T12Z_MSC_GDPS_UVIndex_Sfc_LatLon0.15_PT141H.grib2 2026-04-24 16:51 1.5M
20260424T12Z_MSC_GDPS_UpwardLongwaveRadiationFlux_NTAtm_LatLon0.15_PT141H.grib2 2026-04-24 16:27 844K
20260424T12Z_MSC_GDPS_VerticalVelocity_IsbL-0200_LatLon0.15_PT141H.grib2 2026-04-24 16:27 1.2M
20260424T12Z_MSC_GDPS_VerticalVelocity_IsbL-0250_LatLon0.15_PT141H.grib2 2026-04-24 16:27 1.1M
20260424T12Z_MSC_GDPS_VerticalVelocity_IsbL-0500_LatLon0.15_PT141H.grib2 2026-04-24 16:27 1.0M
20260424T12Z_MSC_GDPS_VerticalVelocity_IsbL-0600_LatLon0.15_PT141H.grib2 2026-04-24 16:27 1.1M
20260424T12Z_MSC_GDPS_VerticalVelocity_IsbL-0700_LatLon0.15_PT141H.grib2 2026-04-24 16:27 1.1M
20260424T12Z_MSC_GDPS_VerticalVelocity_IsbL-0850_LatLon0.15_PT141H.grib2 2026-04-24 16:27 1.3M
20260424T12Z_MSC_GDPS_WindChill_Sfc_LatLon0.15_PT141H.grib2 2026-04-24 16:27 5.3M
20260424T12Z_MSC_GDPS_WindDir_AGL-10m_LatLon0.15_PT141H.grib2 2026-04-24 16:27 1.3M
20260424T12Z_MSC_GDPS_WindDir_AGL-120m_LatLon0.15_PT141H.grib2 2026-04-24 16:27 1.4M
20260424T12Z_MSC_GDPS_WindDir_AGL-40m_LatLon0.15_PT141H.grib2 2026-04-24 16:27 1.4M
20260424T12Z_MSC_GDPS_WindDir_AGL-80m_LatLon0.15_PT141H.grib2 2026-04-24 16:27 1.4M
20260424T12Z_MSC_GDPS_WindDir_IsbL-0001_LatLon0.15_PT141H.grib2 2026-04-24 16:27 661K
20260424T12Z_MSC_GDPS_WindDir_IsbL-0005_LatLon0.15_PT141H.grib2 2026-04-24 16:27 781K
20260424T12Z_MSC_GDPS_WindDir_IsbL-0010_LatLon0.15_PT141H.grib2 2026-04-24 16:27 829K
20260424T12Z_MSC_GDPS_WindDir_IsbL-0020_LatLon0.15_PT141H.grib2 2026-04-24 16:27 926K
20260424T12Z_MSC_GDPS_WindDir_IsbL-0030_LatLon0.15_PT141H.grib2 2026-04-24 16:27 906K
20260424T12Z_MSC_GDPS_WindDir_IsbL-0050_LatLon0.15_PT141H.grib2 2026-04-24 16:27 938K
20260424T12Z_MSC_GDPS_WindDir_IsbL-0100_LatLon0.15_PT141H.grib2 2026-04-24 16:27 1.0M
20260424T12Z_MSC_GDPS_WindDir_IsbL-0150_LatLon0.15_PT141H.grib2 2026-04-24 16:27 1.0M
20260424T12Z_MSC_GDPS_WindDir_IsbL-0175_LatLon0.15_PT141H.grib2 2026-04-24 16:27 1.0M
20260424T12Z_MSC_GDPS_WindDir_IsbL-0200_LatLon0.15_PT141H.grib2 2026-04-24 16:27 1.1M
20260424T12Z_MSC_GDPS_WindDir_IsbL-0225_LatLon0.15_PT141H.grib2 2026-04-24 16:27 1.1M
20260424T12Z_MSC_GDPS_WindDir_IsbL-0250_LatLon0.15_PT141H.grib2 2026-04-24 16:27 1.1M
20260424T12Z_MSC_GDPS_WindDir_IsbL-0275_LatLon0.15_PT141H.grib2 2026-04-24 16:27 1.2M
20260424T12Z_MSC_GDPS_WindDir_IsbL-0300_LatLon0.15_PT141H.grib2 2026-04-24 16:27 1.2M
20260424T12Z_MSC_GDPS_WindDir_IsbL-0350_LatLon0.15_PT141H.grib2 2026-04-24 16:27 1.2M
20260424T12Z_MSC_GDPS_WindDir_IsbL-0400_LatLon0.15_PT141H.grib2 2026-04-24 16:27 1.2M
20260424T12Z_MSC_GDPS_WindDir_IsbL-0450_LatLon0.15_PT141H.grib2 2026-04-24 16:27 1.3M
20260424T12Z_MSC_GDPS_WindDir_IsbL-0500_LatLon0.15_PT141H.grib2 2026-04-24 16:27 1.3M
20260424T12Z_MSC_GDPS_WindDir_IsbL-0550_LatLon0.15_PT141H.grib2 2026-04-24 16:27 1.4M
20260424T12Z_MSC_GDPS_WindDir_IsbL-0600_LatLon0.15_PT141H.grib2 2026-04-24 16:27 1.4M
20260424T12Z_MSC_GDPS_WindDir_IsbL-0650_LatLon0.15_PT141H.grib2 2026-04-24 16:27 1.5M
20260424T12Z_MSC_GDPS_WindDir_IsbL-0700_LatLon0.15_PT141H.grib2 2026-04-24 16:27 1.6M
20260424T12Z_MSC_GDPS_WindDir_IsbL-0750_LatLon0.15_PT141H.grib2 2026-04-24 16:27 1.7M
20260424T12Z_MSC_GDPS_WindDir_IsbL-0800_LatLon0.15_PT141H.grib2 2026-04-24 16:27 1.8M
20260424T12Z_MSC_GDPS_WindDir_IsbL-0850_LatLon0.15_PT141H.grib2 2026-04-24 16:27 1.9M
20260424T12Z_MSC_GDPS_WindDir_IsbL-0875_LatLon0.15_PT141H.grib2 2026-04-24 16:27 2.0M
20260424T12Z_MSC_GDPS_WindDir_IsbL-0900_LatLon0.15_PT141H.grib2 2026-04-24 16:27 2.0M
20260424T12Z_MSC_GDPS_WindDir_IsbL-0925_LatLon0.15_PT141H.grib2 2026-04-24 16:27 2.0M
20260424T12Z_MSC_GDPS_WindDir_IsbL-0950_LatLon0.15_PT141H.grib2 2026-04-24 16:27 2.0M
20260424T12Z_MSC_GDPS_WindDir_IsbL-0970_LatLon0.15_PT141H.grib2 2026-04-24 16:27 2.0M
20260424T12Z_MSC_GDPS_WindDir_IsbL-0985_LatLon0.15_PT141H.grib2 2026-04-24 16:27 2.0M
20260424T12Z_MSC_GDPS_WindDir_IsbL-1000_LatLon0.15_PT141H.grib2 2026-04-24 16:27 2.1M
20260424T12Z_MSC_GDPS_WindDir_IsbL-1015_LatLon0.15_PT141H.grib2 2026-04-24 16:27 2.0M
20260424T12Z_MSC_GDPS_WindGust-Max_AGL-10m_LatLon0.15_PT141H.grib2 2026-04-24 16:27 2.2M
20260424T12Z_MSC_GDPS_WindGust-Min_AGL-10m_LatLon0.15_PT141H.grib2 2026-04-24 16:27 2.2M
20260424T12Z_MSC_GDPS_WindGust_AGL-10m_LatLon0.15_PT141H.grib2 2026-04-24 16:27 2.2M
20260424T12Z_MSC_GDPS_WindSpeed_AGL-10m_LatLon0.15_PT141H.grib2 2026-04-24 16:27 1.1M
20260424T12Z_MSC_GDPS_WindSpeed_AGL-120m_LatLon0.15_PT141H.grib2 2026-04-24 16:27 1.2M
20260424T12Z_MSC_GDPS_WindSpeed_AGL-40m_LatLon0.15_PT141H.grib2 2026-04-24 16:27 1.2M
20260424T12Z_MSC_GDPS_WindSpeed_AGL-80m_LatLon0.15_PT141H.grib2 2026-04-24 16:27 1.2M
20260424T12Z_MSC_GDPS_WindSpeed_IsbL-0001_LatLon0.15_PT141H.grib2 2026-04-24 16:27 638K
20260424T12Z_MSC_GDPS_WindSpeed_IsbL-0005_LatLon0.15_PT141H.grib2 2026-04-24 16:27 607K
20260424T12Z_MSC_GDPS_WindSpeed_IsbL-0010_LatLon0.15_PT141H.grib2 2026-04-24 16:27 622K
20260424T12Z_MSC_GDPS_WindSpeed_IsbL-0020_LatLon0.15_PT141H.grib2 2026-04-24 16:27 657K
20260424T12Z_MSC_GDPS_WindSpeed_IsbL-0030_LatLon0.15_PT141H.grib2 2026-04-24 16:27 848K
20260424T12Z_MSC_GDPS_WindSpeed_IsbL-0050_LatLon0.15_PT141H.grib2 2026-04-24 16:27 892K
20260424T12Z_MSC_GDPS_WindSpeed_IsbL-0100_LatLon0.15_PT141H.grib2 2026-04-24 16:27 1.1M
20260424T12Z_MSC_GDPS_WindSpeed_IsbL-0150_LatLon0.15_PT141H.grib2 2026-04-24 16:27 1.0M
20260424T12Z_MSC_GDPS_WindSpeed_IsbL-0175_LatLon0.15_PT141H.grib2 2026-04-24 16:27 1.0M
20260424T12Z_MSC_GDPS_WindSpeed_IsbL-0200_LatLon0.15_PT141H.grib2 2026-04-24 16:27 1.1M
20260424T12Z_MSC_GDPS_WindSpeed_IsbL-0225_LatLon0.15_PT141H.grib2 2026-04-24 16:27 1.1M
20260424T12Z_MSC_GDPS_WindSpeed_IsbL-0250_LatLon0.15_PT141H.grib2 2026-04-24 16:27 1.1M
20260424T12Z_MSC_GDPS_WindSpeed_IsbL-0275_LatLon0.15_PT141H.grib2 2026-04-24 16:27 1.1M
20260424T12Z_MSC_GDPS_WindSpeed_IsbL-0300_LatLon0.15_PT141H.grib2 2026-04-24 16:27 1.1M
20260424T12Z_MSC_GDPS_WindSpeed_IsbL-0350_LatLon0.15_PT141H.grib2 2026-04-24 16:27 1.1M
20260424T12Z_MSC_GDPS_WindSpeed_IsbL-0400_LatLon0.15_PT141H.grib2 2026-04-24 16:27 1.1M
20260424T12Z_MSC_GDPS_WindSpeed_IsbL-0450_LatLon0.15_PT141H.grib2 2026-04-24 16:27 1.1M
20260424T12Z_MSC_GDPS_WindSpeed_IsbL-0500_LatLon0.15_PT141H.grib2 2026-04-24 16:27 1.1M
20260424T12Z_MSC_GDPS_WindSpeed_IsbL-0550_LatLon0.15_PT141H.grib2 2026-04-24 16:27 1.1M
20260424T12Z_MSC_GDPS_WindSpeed_IsbL-0600_LatLon0.15_PT141H.grib2 2026-04-24 16:27 1.1M
20260424T12Z_MSC_GDPS_WindSpeed_IsbL-0650_LatLon0.15_PT141H.grib2 2026-04-24 16:27 1.2M
20260424T12Z_MSC_GDPS_WindSpeed_IsbL-0700_LatLon0.15_PT141H.grib2 2026-04-24 16:27 1.2M
20260424T12Z_MSC_GDPS_WindSpeed_IsbL-0750_LatLon0.15_PT141H.grib2 2026-04-24 16:27 1.5M
20260424T12Z_MSC_GDPS_WindSpeed_IsbL-0800_LatLon0.15_PT141H.grib2 2026-04-24 16:27 1.7M
20260424T12Z_MSC_GDPS_WindSpeed_IsbL-0850_LatLon0.15_PT141H.grib2 2026-04-24 16:27 1.8M
20260424T12Z_MSC_GDPS_WindSpeed_IsbL-0875_LatLon0.15_PT141H.grib2 2026-04-24 16:27 1.9M
20260424T12Z_MSC_GDPS_WindSpeed_IsbL-0900_LatLon0.15_PT141H.grib2 2026-04-24 16:27 1.9M
20260424T12Z_MSC_GDPS_WindSpeed_IsbL-0925_LatLon0.15_PT141H.grib2 2026-04-24 16:27 1.9M
20260424T12Z_MSC_GDPS_WindSpeed_IsbL-0950_LatLon0.15_PT141H.grib2 2026-04-24 16:27 1.9M
20260424T12Z_MSC_GDPS_WindSpeed_IsbL-0970_LatLon0.15_PT141H.grib2 2026-04-24 16:27 1.8M
20260424T12Z_MSC_GDPS_WindSpeed_IsbL-0985_LatLon0.15_PT141H.grib2 2026-04-24 16:27 1.8M
20260424T12Z_MSC_GDPS_WindSpeed_IsbL-1000_LatLon0.15_PT141H.grib2 2026-04-24 16:27 1.8M
20260424T12Z_MSC_GDPS_WindSpeed_IsbL-1015_LatLon0.15_PT141H.grib2 2026-04-24 16:27 1.8M
20260424T12Z_MSC_GDPS_WindU_AGL-10m_LatLon0.15_PT141H.grib2 2026-04-24 16:27 1.6M
20260424T12Z_MSC_GDPS_WindU_AGL-120m_LatLon0.15_PT141H.grib2 2026-04-24 16:27 969K
20260424T12Z_MSC_GDPS_WindU_AGL-40m_LatLon0.15_PT141H.grib2 2026-04-24 16:27 967K
20260424T12Z_MSC_GDPS_WindU_AGL-80m_LatLon0.15_PT141H.grib2 2026-04-24 16:27 970K
20260424T12Z_MSC_GDPS_WindU_IsbL-0001_LatLon0.15_PT141H.grib2 2026-04-24 16:27 498K
20260424T12Z_MSC_GDPS_WindU_IsbL-0005_LatLon0.15_PT141H.grib2 2026-04-24 16:27 686K
20260424T12Z_MSC_GDPS_WindU_IsbL-0010_LatLon0.15_PT141H.grib2 2026-04-24 16:27 697K
20260424T12Z_MSC_GDPS_WindU_IsbL-0020_LatLon0.15_PT141H.grib2 2026-04-24 16:27 725K
20260424T12Z_MSC_GDPS_WindU_IsbL-0030_LatLon0.15_PT141H.grib2 2026-04-24 16:27 728K
20260424T12Z_MSC_GDPS_WindU_IsbL-0050_LatLon0.15_PT141H.grib2 2026-04-24 16:27 686K
20260424T12Z_MSC_GDPS_WindU_IsbL-0100_LatLon0.15_PT141H.grib2 2026-04-24 16:27 910K
20260424T12Z_MSC_GDPS_WindU_IsbL-0150_LatLon0.15_PT141H.grib2 2026-04-24 16:27 1.0M
20260424T12Z_MSC_GDPS_WindU_IsbL-0175_LatLon0.15_PT141H.grib2 2026-04-24 16:27 1.0M
20260424T12Z_MSC_GDPS_WindU_IsbL-0200_LatLon0.15_PT141H.grib2 2026-04-24 16:27 845K
20260424T12Z_MSC_GDPS_WindU_IsbL-0225_LatLon0.15_PT141H.grib2 2026-04-24 16:27 911K
20260424T12Z_MSC_GDPS_WindU_IsbL-0250_LatLon0.15_PT141H.grib2 2026-04-24 16:27 911K
20260424T12Z_MSC_GDPS_WindU_IsbL-0275_LatLon0.15_PT141H.grib2 2026-04-24 16:27 934K
20260424T12Z_MSC_GDPS_WindU_IsbL-0300_LatLon0.15_PT141H.grib2 2026-04-24 16:27 924K
20260424T12Z_MSC_GDPS_WindU_IsbL-0350_LatLon0.15_PT141H.grib2 2026-04-24 16:27 876K
20260424T12Z_MSC_GDPS_WindU_IsbL-0400_LatLon0.15_PT141H.grib2 2026-04-24 16:27 877K
20260424T12Z_MSC_GDPS_WindU_IsbL-0450_LatLon0.15_PT141H.grib2 2026-04-24 16:27 880K
20260424T12Z_MSC_GDPS_WindU_IsbL-0500_LatLon0.15_PT141H.grib2 2026-04-24 16:27 1.1M
20260424T12Z_MSC_GDPS_WindU_IsbL-0550_LatLon0.15_PT141H.grib2 2026-04-24 16:27 1.1M
20260424T12Z_MSC_GDPS_WindU_IsbL-0600_LatLon0.15_PT141H.grib2 2026-04-24 16:27 1.1M
20260424T12Z_MSC_GDPS_WindU_IsbL-0650_LatLon0.15_PT141H.grib2 2026-04-24 16:27 1.2M
20260424T12Z_MSC_GDPS_WindU_IsbL-0700_LatLon0.15_PT141H.grib2 2026-04-24 16:27 1.2M
20260424T12Z_MSC_GDPS_WindU_IsbL-0750_LatLon0.15_PT141H.grib2 2026-04-24 16:27 1.3M
20260424T12Z_MSC_GDPS_WindU_IsbL-0800_LatLon0.15_PT141H.grib2 2026-04-24 16:27 1.4M
20260424T12Z_MSC_GDPS_WindU_IsbL-0850_LatLon0.15_PT141H.grib2 2026-04-24 16:27 1.4M
20260424T12Z_MSC_GDPS_WindU_IsbL-0875_LatLon0.15_PT141H.grib2 2026-04-24 16:27 1.4M
20260424T12Z_MSC_GDPS_WindU_IsbL-0900_LatLon0.15_PT141H.grib2 2026-04-24 16:27 1.5M
20260424T12Z_MSC_GDPS_WindU_IsbL-0925_LatLon0.15_PT141H.grib2 2026-04-24 16:27 1.5M
20260424T12Z_MSC_GDPS_WindU_IsbL-0950_LatLon0.15_PT141H.grib2 2026-04-24 16:27 1.4M
20260424T12Z_MSC_GDPS_WindU_IsbL-0970_LatLon0.15_PT141H.grib2 2026-04-24 16:27 1.4M
20260424T12Z_MSC_GDPS_WindU_IsbL-0985_LatLon0.15_PT141H.grib2 2026-04-24 16:27 1.4M
20260424T12Z_MSC_GDPS_WindU_IsbL-1000_LatLon0.15_PT141H.grib2 2026-04-24 16:27 1.7M
20260424T12Z_MSC_GDPS_WindU_IsbL-1015_LatLon0.15_PT141H.grib2 2026-04-24 16:27 1.7M
20260424T12Z_MSC_GDPS_WindV_AGL-10m_LatLon0.15_PT141H.grib2 2026-04-24 16:27 1.6M
20260424T12Z_MSC_GDPS_WindV_AGL-120m_LatLon0.15_PT141H.grib2 2026-04-24 16:27 968K
20260424T12Z_MSC_GDPS_WindV_AGL-40m_LatLon0.15_PT141H.grib2 2026-04-24 16:27 1.2M
20260424T12Z_MSC_GDPS_WindV_AGL-80m_LatLon0.15_PT141H.grib2 2026-04-24 16:27 969K
20260424T12Z_MSC_GDPS_WindV_IsbL-0001_LatLon0.15_PT141H.grib2 2026-04-24 16:27 704K
20260424T12Z_MSC_GDPS_WindV_IsbL-0005_LatLon0.15_PT141H.grib2 2026-04-24 16:27 758K
20260424T12Z_MSC_GDPS_WindV_IsbL-0010_LatLon0.15_PT141H.grib2 2026-04-24 16:27 789K
20260424T12Z_MSC_GDPS_WindV_IsbL-0020_LatLon0.15_PT141H.grib2 2026-04-24 16:27 841K
20260424T12Z_MSC_GDPS_WindV_IsbL-0030_LatLon0.15_PT141H.grib2 2026-04-24 16:27 1.1M
20260424T12Z_MSC_GDPS_WindV_IsbL-0050_LatLon0.15_PT141H.grib2 2026-04-24 16:27 892K
20260424T12Z_MSC_GDPS_WindV_IsbL-0100_LatLon0.15_PT141H.grib2 2026-04-24 16:27 1.0M
20260424T12Z_MSC_GDPS_WindV_IsbL-0150_LatLon0.15_PT141H.grib2 2026-04-24 16:27 1.0M
20260424T12Z_MSC_GDPS_WindV_IsbL-0175_LatLon0.15_PT141H.grib2 2026-04-24 16:27 1.0M
20260424T12Z_MSC_GDPS_WindV_IsbL-0200_LatLon0.15_PT141H.grib2 2026-04-24 16:27 842K
20260424T12Z_MSC_GDPS_WindV_IsbL-0225_LatLon0.15_PT141H.grib2 2026-04-24 16:27 907K
20260424T12Z_MSC_GDPS_WindV_IsbL-0250_LatLon0.15_PT141H.grib2 2026-04-24 16:27 907K
20260424T12Z_MSC_GDPS_WindV_IsbL-0275_LatLon0.15_PT141H.grib2 2026-04-24 16:27 930K
20260424T12Z_MSC_GDPS_WindV_IsbL-0300_LatLon0.15_PT141H.grib2 2026-04-24 16:27 857K
20260424T12Z_MSC_GDPS_WindV_IsbL-0350_LatLon0.15_PT141H.grib2 2026-04-24 16:27 869K
20260424T12Z_MSC_GDPS_WindV_IsbL-0400_LatLon0.15_PT141H.grib2 2026-04-24 16:27 869K
20260424T12Z_MSC_GDPS_WindV_IsbL-0450_LatLon0.15_PT141H.grib2 2026-04-24 16:27 1.1M
20260424T12Z_MSC_GDPS_WindV_IsbL-0500_LatLon0.15_PT141H.grib2 2026-04-24 16:27 1.1M
20260424T12Z_MSC_GDPS_WindV_IsbL-0550_LatLon0.15_PT141H.grib2 2026-04-24 16:27 1.1M
20260424T12Z_MSC_GDPS_WindV_IsbL-0600_LatLon0.15_PT141H.grib2 2026-04-24 16:27 1.1M
20260424T12Z_MSC_GDPS_WindV_IsbL-0650_LatLon0.15_PT141H.grib2 2026-04-24 16:27 1.1M
20260424T12Z_MSC_GDPS_WindV_IsbL-0700_LatLon0.15_PT141H.grib2 2026-04-24 16:27 1.2M
20260424T12Z_MSC_GDPS_WindV_IsbL-0750_LatLon0.15_PT141H.grib2 2026-04-24 16:27 1.2M
20260424T12Z_MSC_GDPS_WindV_IsbL-0800_LatLon0.15_PT141H.grib2 2026-04-24 16:27 1.3M
20260424T12Z_MSC_GDPS_WindV_IsbL-0850_LatLon0.15_PT141H.grib2 2026-04-24 16:27 1.4M
20260424T12Z_MSC_GDPS_WindV_IsbL-0875_LatLon0.15_PT141H.grib2 2026-04-24 16:27 1.4M
20260424T12Z_MSC_GDPS_WindV_IsbL-0900_LatLon0.15_PT141H.grib2 2026-04-24 16:27 1.5M
20260424T12Z_MSC_GDPS_WindV_IsbL-0925_LatLon0.15_PT141H.grib2 2026-04-24 16:27 1.4M
20260424T12Z_MSC_GDPS_WindV_IsbL-0950_LatLon0.15_PT141H.grib2 2026-04-24 16:27 1.4M
20260424T12Z_MSC_GDPS_WindV_IsbL-0970_LatLon0.15_PT141H.grib2 2026-04-24 16:27 1.4M
20260424T12Z_MSC_GDPS_WindV_IsbL-0985_LatLon0.15_PT141H.grib2 2026-04-24 16:27 1.4M
20260424T12Z_MSC_GDPS_WindV_IsbL-1000_LatLon0.15_PT141H.grib2 2026-04-24 16:27 1.7M
20260424T12Z_MSC_GDPS_WindV_IsbL-1015_LatLon0.15_PT141H.grib2 2026-04-24 16:27 1.6M